Regional Weather Roundup
Issued by NWS

Home | Current Version | Previous Version | Text Only | Print | Product List | Glossary Off
Versions: 1 2 3 4 5 6 7 8 9 10 11 12 13 14 15 16 17 18 19 20 21 22 23 24 25 26 27 28 29 30 31 32 33 34 35 36 37 38 39 40 41 42 43 44 45 46 47 48 49 50

896
ASUS45 KCYS 140610
RWRWY

WYOMING REGIONAL WEATHER ROUNDUP
NATIONAL WEATHER SERVICE CHEYENNE WY
1100 PM MST SAT FEB 13 2016

NOTE:  "FAIR" INDICATES FEW OR NO CLOUDS BELOW 12,000 FEET
WITH NO SIGNIFICANT WEATHER AND/OR OBSTRUCTIONS TO VISIBILITY.

WYZ001-140700-
YELLOWSTONE NATIONAL PARK

CITY           SKY/WX    TMP DP  RH WIND       PRES   REMARKS
LK YELLOWSTONE   N/A     23  17  78 VRB5      30.13S WCI  17
6HR MIN TEMP:  21; 6HR MAX TEMP:  28;

W YELLOWSTONE  NOT AVBL

$$
WYZ002>013-054>058-071-098>099-140700-
NORTHERN WYOMING

CITY           SKY/WX    TMP DP  RH WIND       PRES   REMARKS
JACKSON        CLOUDY    30  21  69 S13       30.17F WCI  20
CODY           FAIR      37  16  41 W17G28    30.00F WCI  28
GREYBULL       FAIR      30  20  66 SE3       30.04F
6HR MIN TEMP:  28; 6HR MAX TEMP:  47;

WORLAND        FAIR      32  22  66 S13       30.05F WCI  22
6HR MIN TEMP:  27; 6HR MAX TEMP:  42;

SHERIDAN       FAIR      28  19  69 SW5       29.99F WCI  23
6HR MIN TEMP:  27; 6HR MAX TEMP:  40;

BUFFALO        FAIR      37  13  37 NW14G22   29.99F WCI  28
6HR MIN TEMP:  36; 6HR MAX TEMP:  40;

GILLETTE       FAIR      28  23  81 W13       29.98F WCI  17
6HR MIN TEMP:  26; 6HR MAX TEMP:  35; 6HR PCP: TRACE;

HULETT         FAIR      34  30  86 W9G20     29.95F WCI  26
NEWCASTLE      FAIR      32  30  93 N15       29.97F WCI  22

$$
WYZ014>020-022>026-101>103-140700-
CENTRAL WYOMING

CITY           SKY/WX    TMP DP  RH WIND       PRES   REMARKS
BIG PINEY      FAIR      20  14  77 E6        30.17S WCI  12
6HR MIN TEMP:  20; 6HR MAX TEMP:  35;

PINEDALE         N/A     21  18  86 MISG      30.17F
DUBOIS         FAIR      25  12  58 NW22G30   30.06F WCI  10
LANDER         FAIR      29  16  58 S5        30.09F WCI  24
6HR MIN TEMP:  29; 6HR MAX TEMP:  45;

RIVERTON       FAIR      34  12  40 W15       30.09F WCI  24
6HR MIN TEMP:  31; 6HR MAX TEMP:  41;

CASPER         FAIR      27  21  78 W10       30.08S WCI  17
6HR MIN TEMP:  25; 6HR MAX TEMP:  35;

DOUGLAS        FAIR      31  24  75 NW13      30.06R WCI  21
6HR MIN TEMP:  31; 6HR MAX TEMP:  36; 6HR PCP: TRACE;


$$
WYZ021-027>030-104>119-140700-
SOUTHERN WYOMING

CITY           SKY/WX    TMP DP  RH WIND       PRES   REMARKS
EVANSTON       FAIR      27  19  72 W20       30.23F WCI  13
6HR MIN TEMP:  25; 6HR MAX TEMP:  36;

FORT BRIDGER   CLEAR     28  23  80 W16       30.22F WCI  17
ROCK SPRINGS   FAIR      31  20  63 W16G25    30.19F WCI  20
6HR MIN TEMP:  28; 6HR MAX TEMP:  39;

DIXON          FAIR      14  10  85 CALM      30.24F
RAWLINS        FAIR      27  17  66 W18       30.15F WCI  14
6HR MIN TEMP:  25; 6HR MAX TEMP:  38;

SARATOGA       FAIR      28  21  74 W16       30.17F WCI  17
LARAMIE        FAIR      26  18  71 NW8       30.10S WCI  18
6HR MIN TEMP:  25; 6HR MAX TEMP:  43;

CHEYENNE       FAIR      32  24  72 NW12      30.06R WCI  23
6HR MIN TEMP:  31; 6HR MAX TEMP:  50;

TORRINGTON     FAIR      33  25  72 NW15      30.04R WCI  23
6HR MIN TEMP:  31; 6HR MAX TEMP:  55; 6HR PCP: TRACE;

PINE BLUFFS    FAIR      32  27  80 NW16      30.07S WCI  21

$$




USA.gov is the U.S. government's official web portal to all federal, state and local government web resources and services.